ONEWEB-0086, 45456

Orbit data source: Space-Track

ONEWEB-0086, 45456 is a payload satellite owned by One Web (UK) in LEO that was launched on Sat, 21 Mar 2020 UTC via a SOYUZ-2-1B launch vehicle from the Tyuratam Missile And Space Complex (TTMTR). Payload-class satellites include a variety of spacecraft equipped with specific instruments for various scientific and technological missions. These include communications satellites like Starlink; space stations such as the ISS; scientific satellites like the Hubble; Earth observation satellites from companies like Planet Labs, Umbra, and HawkEye 360; GPS; miniature CubeSats for education and research; and military/defense satellites.

Loading next visibility...
Identifier
45456, 2020-020AJ
Orbit
LEO
Last TLE update
2 days ago
Origin
Manufacturer
One Web
Mission
Operational Commercial Communications
Bus & Motor
ARROW, Unknown motor
Mass
148 kg wet, ~140 kg dry
Launch date (UTC)
2020-03-21 (5 years ago)
Launch vehicle
SOYUZ-2-1B
Launch site
Tyuratam Missile And Space Complex (TTMTR)
Object type
Payload
Rocket body
Debris
Shape & HBR
Trap Box + 2 Pan, 5 m
Radar Cross Section
2.957 m², Large (>1 m²)

Expand to show TLE details & history

TLE from 2 days ago
0 ONEWEB-0086
1 45456U 20020AJ  25108.48395465 -.00000471  00000-0 -13635-2 0  9992
2 45456  87.8792 105.7082 0002210  80.9398 279.1980 13.11418718246948
Epoch: 2025-04-18T11:36Z
Definitive object data (Epoch: 2025-04-18T11:36:53.681Z)
Latitude
-0.00003°
Longitude
84.64368°
Altitude
1,220.297 km
Speed
7.244 km/s
True Right ascension
07h 02m 49s
True Declination
0° 00' 00"
Sunlit
Object was in daylight at TLE epoch
Visualization TLE readout
Latitude
43.79248°
Longitude
-97.69121°
Altitude
1,223.381 km
Speed
7.247 km/s
Apparent Right ascension
19h 19m 33s
Apparent Declination
6° 27' 16"
Sunlit
Object is in daylight
Visualization observer readout
Local Sidereal Time
07:48:47
Azimuth
9.979° NNE
Elevation
-43.141°
Doppler factor
1
Orbital elements
Apogee altitude
1,216.472 km
Perigee altitude
1,213.116 km
Semi-major axis
7,592.931 km
Eccentricity
0.000221
Inclination
87.8792°
RAAN
105.7082°
Arg. of periapsis
80.9398°
True anomaly
279.173°
Mean anomaly
279.198°
Eccentric anomaly
279.1855°
Mean motion
3.28042 °/min
BSTAR
-0.0013635
Orbital period
109.74 mins
Loading maneuver chart data...
Loading SW <> Apogee altitude chart data...
Loading historical data...
Loading historical data...
Loading historical data...
Loading historical data...
Loading historical data...
Loading historical data...
Loading historical data...

ONEWEB-0086 Visibility forecast

Observer location: undefined°, undefined°

Span
Click to sort rows by Start time (UTC) header in descending order
Start Az.
Max El. time (UTC)
Max El. Az.
Max El.
End time (UTC)
End Az.
4 mins2025-04-20 02:15:46.453Z275.851° WNW2025-04-20 02:17:46.453Z292.547° NW11.775°2025-04-20 02:19:46.453Z308.949° NW
5 mins2025-04-20 10:02:46.453Z50.282° ENE2025-04-20 10:04:46.453Z67.457° ENE13.614°2025-04-20 10:07:46.453Z93.432° ESE
13 mins2025-04-20 11:49:46.453Z0.52° NNE2025-04-20 11:55:46.453Z27.175° NE44.7°2025-04-20 12:02:46.453Z179.47° S
6 mins2025-04-20 13:42:46.453Z308.415° NW2025-04-20 13:44:46.453Z290.258° WNW15.389°2025-04-20 13:48:46.453Z255.883° W
7 mins2025-04-20 22:22:46.453Z98.774° ESE2025-04-20 22:25:46.453Z72.18° E15.516°2025-04-20 22:29:46.453Z38.221° NE
13 mins2025-04-21 00:08:46.453Z181.142° SSW2025-04-21 00:14:46.453Z296.444° NW44.898°2025-04-21 00:21:46.453Z359.694° N
|